This demonstration page uses our WeatherBlox Daily Observations layout. Learn more.

Left ArrowRight Arrow

Hourly Observations for October 27, 2015

Temp ( °F °C ) Dew Point ( °F °C ) Humidity (%) Winds ( mph kmh ) Pressure ( in mb ) Visibility ( mi km ) Precip ( " mm )
12:53 am 00:53 Mostly Clear 55 12.8 36 2.2 49 49 ENE 6 9 30.29 1026 10 16 0.00 0.00
1:53 am 01:53 Mostly Cloudy 55 12.8 36 2.2 49 49 ENE 5 7 30.27 1025 10 16 0.00 0.00
2:53 am 02:53 Cloudy 54 12.2 36 2.2 51 51 ENE 6 9 30.26 1025 10 16 0.00 0.00
3:53 am 03:53 Cloudy 53 11.7 37 2.8 55 55 ENE 5 7 30.26 1025 10 16 0.00 0.00
4:53 am 04:53 Cloudy with Light Rain 52 11.1 39 3.9 61 61 ENE 5 7 30.26 1025 10 16 0.00 0.03
5:53 am 05:53 Cloudy with Light Rain 50 10 43 6.1 77 77 ENE 5 7 30.27 1025 10 16 0.00 0.03
6:53 am 06:53 Cloudy with Light Rain 49 9.4 43 6.1 80 80 E 6 9 30.27 1025 10 16 0.02 0.51
7:17 am 07:17 Cloudy with Light Rain 49 9.4 45 7.2 86 86 E 5 7 30.27 1025 8 13 0.01 0.25
7:53 am 07:53 Cloudy with Light Rain 49 9.4 45 7.2 86 86 E 7 11 30.27 1025 8 13 0.02 0.51
8:53 am 08:53 Cloudy with Light Rain 49 9.4 46 7.8 90 90 E 8 13 30.27 1025 7 11 0.01 0.25
9:08 am 09:08 Cloudy with Light Rain 49 9.4 47 8.3 93 93 E 7 11 30.27 1025 6 10 0.01 0.25
9:53 am 09:53 Cloudy with Light Rain 50 10 48 8.9 93 93 E 6 9 30.27 1025 8 13 0.02 0.51
10:07 am 10:07 Cloudy with Light Rain 50 10 48 8.9 93 93 E 6 9 30.27 1025 7 11 0.00 0.03
10:53 am 10:53 Cloudy with Light Rain 51 10.6 49 9.4 92 92 E 8 13 30.26 1025 9 14 0.00 0.03
11:53 am 11:53 Cloudy with Light Rain 53 11.7 51 10.6 93 93 E 8 13 30.23 1024 10 16 0.00 0.03
12:53 pm 12:53 Cloudy with Light Rain 54 12.2 51 10.6 90 90 ENE 9 15 30.22 1023 10 16 0.00 0.03
1:18 pm 13:18 Cloudy with Light Rain 54 12.2 51 10.6 90 90 E 9 15 30.21 1023 8 13 0.02 0.51
1:53 pm 13:53 Cloudy with Light Rain 54 12.2 52 11.1 93 93 E 10 17 30.18 1022 8 13 0.02 0.51
2:53 pm 14:53 Cloudy with Light Rain 55 12.8 52 11.1 90 90 E 13 20 30.14 1021 10 16 0.01 0.25
3:53 pm 15:53 Cloudy with Light Rain 54 12.2 51 10.6 90 90 E 12 19 30.11 1020 9 14 0.00 0.03
4:53 pm 16:53 Cloudy with Light Rain 53 11.7 51 10.6 93 93 E 9 15 30.09 1019 7 11 0.02 0.51
5:53 pm 17:53 Cloudy with Rain 53 11.7 51 10.6 93 93 E 9 15 30.07 1018 6 10 0.07 1.78
6:53 pm 18:53 Cloudy with Rain 53 11.7 51 10.6 93 93 E 9 15 30.06 1018 7 11 0.09 2.29
7:53 pm 19:53 Cloudy with Heavy Rain 53 11.7 51 10.6 93 93 ESE 10 17 30.04 1017 5 8 0.16 4.06
8:53 pm 20:53 Cloudy with Light Rain 53 11.7 51 10.6 93 93 E 12 19 30.01 1016 6 10 0.17 4.32
9:53 pm 21:53 Cloudy with Heavy Rain 53 11.7 51 10.6 93 93 ESE 9 15 29.98 1015 3 5 0.15 3.81
10:14 pm 22:14 Cloudy with Heavy Rain 53 11.7 52 11.1 96 96 ESE 13 20 30.00 1016 3 5 0.14 3.56
10:46 pm 22:46 Cloudy with Heavy Rain 54 12.2 52 11.1 93 93 ESE 13 20 29.97 1015 4 6 0.28 7.11
10:53 pm 22:53 Cloudy with Heavy Rain 54 12.2 52 11.1 93 93 ESE 10 17 29.94 1014 4 6 0.31 7.87
11:19 pm 23:19 Cloudy with Rain 54 12.2 52 11.1 93 93 ESE 14 22 29.94 1014 5 8 0.10 2.54
11:53 pm 23:53 Cloudy with Heavy Rain 55 12.8 53 11.7 93 93 ESE 17 28 29.88 1012 3 5 0.22 5.59

Powered by AerisWeather